星链-4565 (STARLINK-4565 )

导读

STARLINK-4565是美国太空探索技术公司Starlink“星链”卫星星座中的一颗卫星,于美国东部时间2022年8月19日发射升空。它承担星链低轨互联网星座的全球通信服务任务,属于该星座组网进程中补充卫星,进一步拓展了星链星座的覆盖范围与服务容量,助力星链完成全球网络布局。

基本信息
目录编号:
53562
目录名称:
STARLINK-4565
国际标识:
2022-101AM
轨道中心:
EARTH
卫星名称:
星链-4565
卫星全名:
星链-4565 (STARLINK-4565 )
卫星状态:
在轨 (已飞行1396 天)
发射日期:
2022-08-19 UTC
国别 :
美国 (US)
星等 :
--
轨道信息
数据来源 国际轨道数据
星历时间: 2026-06-15T04:00:05+0800
4小时前
查看轨道信息
半长轴: 6906.343km
偏心率: 0.0001673
轨道倾角: 53.159°
近地点辐角 73.485°
升交点赤经 338.047°
平近点角 121.011°
近地点: 527.05km
远地点: 529.362km
周期: 95.199分钟
每日圈数: 15.126226
详细信息
固有亮度:
5
最大亮度:
2.5
卫星平台:
Starlink v1.5
覆盖范围:
全球
运营商:
太空探索技术公司
运营商所在国:
美国
制造商(研发单位):
太空探索技术公司
制造商所在国:
美国
使用方式:
暂无
卫星简介
星链(Starlink)计划是由太空探索技术公司(SpaceX)提出的一个巨型低轨卫星互联网星座项目,计划在2019年至2024年间在太空搭建由约1.2万颗卫星组成的“星链”网络,其中1584颗将部署在地球上空550千米处的近地轨道,并从2020年开始工作。该卫星仍在工作。
2D轨道图
3D轨道图
轨道高度分析图
轨道倾角分析图
轨道综合分析图
查看轨道综合分析图